Regional Weather Roundup
Issued by NWS

Home | Current Version | Previous Version | Text Only | Print | Product List | Glossary On
Versions: 1 2 3 4 5 6 7 8 9 10 11 12 13 14 15 16 17 18 19 20 21 22 23 24 25 26 27 28 29 30 31 32 33 34 35 36 37 38 39 40 41 42 43 44 45 46 47 48 49 50
837
ASUS43 KMKX 261000
RWRWI

WISCONSIN REGIONAL WEATHER ROUNDUP
NATIONAL WEATHER SERVICE MILWAUKEE/SULLIVAN WI
500 AM CDT FRI MAY 26 2017

NOTE: "FAIR" INDICATES FEW OR NO CLOUDS BELOW 12,000 FEET WITH NO
SIGNIFICANT WEATHER AND/OR OBSTRUCTIONS TO VISIBILITY.

WIZ001-002-006>008-014>016-023>028-261100-
NORTHWEST WISCONSIN

CITY           SKY/WX    TMP DP  RH WIND       PRES   REMARKS
SUPERIOR ARPT  NOT AVBL
ASHLAND        CLOUDY    49  47  93 SE3       29.77R
HAYWARD        CLOUDY    56  52  86 CALM      29.76S
SIREN          CLOUDY    58  54  86 CALM      29.73S
CUMBERLAND     CLOUDY    55  52  88 SE5       29.75S
RICE LAKE      CLOUDY    58  54  85 SE6       29.77S
CHETEK         DRIZZLE   58  55  90 CALM      29.76S
LADYSMITH      CLOUDY    58  54  86 SE5       29.79S
EAU CLAIRE     CLOUDY    59  54  83 SE7       29.75F
MENOMONIE      CLOUDY    59  55  88 E6        29.75S
NEW RICHMOND   CLOUDY    59  51  75 SE7       29.72F
OSCEOLA        CLOUDY    61  53  75 SE7       29.74S
$$

WIZ003>005-009-010-017-018-261100-
NORTH CENTRAL WISCONSIN

CITY           SKY/WX    TMP DP  RH WIND       PRES   REMARKS
MANITOWISH WTR LGT RAIN  54  53  96 SE6       29.80R
ARBOR VITAE    LGT RAIN  57  53  86 S5        29.80S
WOODRUFF       LGT RAIN  57  53  86 S5        29.80S
RHINELANDER    CLOUDY    55  51  86 CALM      29.82R
EAGLE RIVER    CLOUDY    52  50  93 CALM      29.81S
LAND O LAKES   CLOUDY    46  46  97 CALM      29.83S
PHILLIPS       CLOUDY    56  53  92 S5        29.80R
TOMAHAWK       RAIN      54  51  89 CALM      29.82R
MEDFORD        LGT RAIN  55  53  91 CALM      29.81R
MERRILL        RAIN      55  53  92 SE3       29.82R
$$

WIZ029-030-035-036-043>047-261100-
CENTRAL WISCONSIN

CITY           SKY/WX    TMP DP  RH WIND       PRES   REMARKS
WAUSAU         LGT RAIN  55  52  89 S6        29.82R
MOSINEE        RAIN      54  52  94 S5        29.84R
MARSHFIELD     CLOUDY    56  54  93 NE7       29.79F
STEVENS POINT  LGT RAIN  54  53  95 S3        29.83R
WAUPACA        CLOUDY    57  53  88 CALM      29.82R
WAUTOMA        NOT AVBL
WISC RAPIDS    LGT RAIN  56  54  93 E5        29.82S
CAMP DOUGLAS   CLOUDY    57  57 100 SE5       29.79S
$$

WIZ011>013-019>022-031-037>040-048>050-261100-
NORTHEAST WISCONSIN

CITY           SKY/WX    TMP DP  RH WIND       PRES   REMARKS
ANTIGO         PTCLDY    51  51  97 SE3       29.82S
SHAWANO        MOCLDY    53  51  94 CALM      29.83R
OCONTO         CLOUDY    43  42  99 CALM      29.82S VSB 1/4
STURGEON BAY   FOG       48  48 100 CALM      29.83S VSB 1/2
GREEN BAY      CLOUDY    49  49 100 CALM      29.82S
MANITOWOC      FOG       48  46  93 E3        29.83S VSB 3/4
APPLETON       MOCLDY    54  52  94 E3        29.81S
CLINTONVILLE   PTCLDY    50  50 100 CALM      29.82S FOG
OSHKOSH        CLOUDY    54  52  93 S3        29.82R
$$

WIZ032>034-041-042-053>061-261100-
SOUTHWEST WISCONSIN

CITY           SKY/WX    TMP DP  RH WIND       PRES   REMARKS
LA CROSSE      CLEAR     59  57  93 SE8       29.75F
SPARTA         CLOUDY    54  54 100 CALM      29.79S FOG
VIROQUA        CLEAR     55  54  94 MISG      29.78F
BOSCOBEL       FOG       54  53  97 CALM      29.80S VSB 1/2
PRAIRIE DU CHI CLEAR     55  52  90 SE3       29.78S FOG
PLATTEVILLE    CLOUDY    56  55  97 SE5       29.81S
$$

WIZ056-057-062-063-064-067-068-261100-
SOUTH CENTRAL WISCONSIN

CITY           SKY/WX    TMP DP  RH WIND       PRES   REMARKS
REEDSBURG      CLOUDY    55  55 100 CALM      29.80S
BARABOO/DELLS  CLOUDY    55  53  92 CALM      29.81R
LONE ROCK      NOT AVBL
MINERAL POINT  CLEAR     55  54  94 SE3       29.80F
MADISON        CLOUDY    56  53  90 S3        29.81S
MIDDLETON      CLOUDY    55  55 100 CALM      29.82S
WATERTOWN      CLOUDY    54  54 100 CALM      29.83R
MONROE         PTCLDY    55  54  94 SE5       29.82R
JANESVILLE     CLOUDY    55  54  94 CALM      29.83R
$$

WIZ051-052-058>065-066-070>072-261100-
SOUTHEAST WISCONSIN

CITY           SKY/WX    TMP DP  RH WIND       PRES   REMARKS
MILWAUKEE      CLOUDY    55  53  93 W3        29.83R
WAUKESHA       LGT RAIN  50  50 100 W6        29.85R
MILWAUKEE/TIMM LGT RAIN  54  48  82 CALM      29.82F
RACINE         MOCLDY    52  51  97 SW5       29.84R
KENOSHA        CLOUDY    53  51  93 W3        29.83S
FOND DU LAC    CLOUDY    54  50  86 SW5       29.83R
SHEBOYGAN      PTCLDY    46  46 100 NE3       29.82S FOG
WEST BEND      CLOUDY    48  48 100 CALM      29.83R
JUNEAU         DRIZZLE   54  53  97 CALM      29.84R
$$

LSZ147-162-261100-
LAKE SUPERIOR

STATION/POSITION TIME  TEMP    WIND        PRES    WAVE
                       AIR SEA DIR/SP/G            HT/PER
                 (UTC) (F)     (DEG/KT/KT) (MB)    (FT/S)
W MID LAKE BUOY  0850   43 37  150/  8/  8 1007.8R   1
DEVILS ISLAND    0900   43     230/  8/  9 1007.9R
PORT WING        0830   46     170/  2/  3 1007.8S
SAXON HARBOR     0930   49      80/  2/  3 1007.8R
$$

LMZ867-665-643>646-261100-
LAKE MICHIGAN

STATION/POSITION TIME  TEMP    WIND        PRES    WAVE
                       AIR SEA DIR/SP/G            HT/PER
                 (UTC) (F)     (DEG/KT/KT) (MB)    (FT/S)
CHAMBERS ISLAND  0940   49     260/  3/  4 1009.8R
N MID LAKE BUOY  0850   43 41  320/  6/  6 1010.2R
NORTHPORT PIER   0940   49     300/  4/  6 1010.2R
KEWAUNEE LAKESHO 0924   49     300/  4/  5 1009.5
SHEBOYGAN LAKESH 0900   52     300/  4/  4 1009.7R
PORT WASHINGTON  0930   53      90/  1/  2 1010.5S
MILWAUKEE LAKESH 0930   54      60/  2/  3   N/A
S MID LAKE BUOY  0850   47 45  340/  8/  8 1009.7R   2/ 5
KENOSHA   LAKESH 0900   54        CALM     1010.2
$$

TC  - TEMPERATURE IN CELSIUS
VSB - VISIBILITY IN STATUTE MILES
WCI - WIND CHILL INDEX
HX  - HEAT INDEX





USA.gov is the U.S. government's official web portal to all federal, state and local government web resources and services.